Date String (YYYY-MM-DD hh:mm:ss) UTC,Instrument flags,Ambient pressure (hPa),Sample flow (lpm),Bypass flow (lpm),Sample temperature (°C),Ambient temperature (°C),ASC tube jacket temperature (°C),LED temperature (°C),Box temperature (°C),Sample RH (%),Span deviation,Mass concentration (μg/m³),Mass concentration (μg/m³),Mass concentration (μg/m³)
DateTimeUTC,F1_M11,P_M11,Q1_M11,Q2_M11,T1_M11,T2_M11,T3_M11,T4_M11,T5_M11,U1_M11,ZSPAN_M11,X0_M11,X2_M11,X1_M11
2022-04-18 18:00:00,,0832.1,5.00,0.00,24.7,24.0,00.0,33.6,26.6,10.2,0000.0,0017.94,0004.97,0003.44
2022-04-18 18:01:00,,0832.1,5.00,0.00,24.7,24.0,00.0,33.6,26.6,10.3,0000.0,0018.26,0005.03,0003.47
2022-04-18 18:02:00,,0832.1,5.00,0.00,24.7,24.0,00.0,33.6,26.6,10.3,0000.0,0019.32,0005.07,0003.48
2022-04-18 18:03:00,,0832.1,5.01,0.00,24.7,24.0,00.0,33.6,26.6,10.3,0000.0,0019.66,0005.12,0003.50
2022-04-18 18:04:00,,0832.1,5.00,0.00,24.8,24.0,00.0,33.6,26.6,10.5,0000.0,0020.29,0005.05,0003.52
2022-04-18 18:05:00,,0832.0,4.99,0.00,24.8,24.0,00.0,33.6,26.6,10.4,0000.0,0020.58,0005.03,0003.53
2022-04-18 18:06:00,,0832.0,5.00,0.00,24.8,24.0,00.0,33.6,26.6,10.3,0000.0,0020.71,0005.03,0003.54
2022-04-18 18:07:00,,0832.0,5.00,0.00,24.8,24.1,00.0,33.6,26.6,10.5,0000.0,0020.55,0005.07,0003.55
2022-04-18 18:08:00,,0832.0,5.00,0.00,24.8,24.1,00.0,33.7,26.7,10.6,0000.0,0020.58,0005.13,0003.56
2022-04-18 18:09:00,,0831.9,5.01,0.00,24.8,24.1,00.0,33.7,26.7,10.2,0000.0,0021.33,0005.17,0003.58
2022-04-18 18:10:00,,0831.9,5.00,0.00,24.8,24.1,00.0,33.7,26.7,10.2,0000.0,0021.40,0005.25,0003.60
2022-04-18 18:11:00,,0831.9,5.00,0.00,24.8,24.1,00.0,33.7,26.7,10.2,0000.0,0020.64,0005.26,0003.62
2022-04-18 18:12:00,,0831.8,5.00,0.00,24.9,24.1,00.0,33.7,26.7,10.3,0000.0,0021.42,0005.33,0003.63
2022-04-18 18:13:00,,0831.7,5.00,0.00,24.8,24.0,00.0,33.7,26.6,10.3,0000.0,0020.98,0005.38,0003.66
2022-04-18 18:14:00,,0831.7,5.00,0.00,24.8,23.8,00.0,33.7,26.5,10.5,0000.0,0020.59,0005.36,0003.69
2022-04-18 18:15:00,,0831.8,4.99,0.00,24.7,23.8,00.0,33.7,26.5,10.5,0000.0,0020.08,0005.40,0003.70
2022-04-18 18:16:00,,0831.8,5.00,0.00,24.7,23.8,00.0,33.7,26.5,10.6,0000.0,0019.96,0005.37,0003.70
2022-04-18 18:17:00,,0831.7,5.00,0.00,24.7,23.9,00.0,33.7,26.5,10.5,0000.0,0019.20,0005.37,0003.70
2022-04-18 18:18:00,,0831.7,5.00,0.00,24.7,23.9,00.0,33.7,26.5,10.6,0000.0,0019.02,0005.39,0003.69
2022-04-18 18:19:00,,0831.6,5.01,0.00,24.7,23.8,00.0,33.7,26.5,10.6,0000.0,0017.69,0005.35,0003.67
2022-04-18 18:20:00,,0831.6,5.00,0.00,24.7,23.8,00.0,33.7,26.6,10.6,0000.0,0016.62,0005.29,0003.65
2022-04-18 18:21:00,,0831.6,5.01,0.00,24.7,23.9,00.0,33.7,26.6,10.6,0000.0,0015.38,0005.16,0003.60
2022-04-18 18:22:00,,0831.5,5.00,0.00,24.7,23.9,00.0,33.7,26.6,10.7,0000.0,0015.03,0005.11,0003.56
2022-04-18 18:23:00,,0831.6,5.01,0.00,24.7,23.9,00.0,33.7,26.6,10.8,0000.0,0013.63,0005.00,0003.53
2022-04-18 18:24:00,,0831.6,5.00,0.00,24.7,23.9,00.0,33.7,26.6,10.9,0000.0,0012.89,0004.90,0003.48
2022-04-18 18:25:00,,0831.6,5.00,0.00,24.8,24.0,00.0,33.7,26.7,10.8,0000.0,0012.38,0004.89,0003.42
2022-04-18 18:26:00,,0831.5,5.00,0.00,24.8,24.0,00.0,33.7,26.7,10.9,0000.0,0011.48,0004.80,0003.37
2022-04-18 18:27:00,,0831.6,5.01,0.00,24.8,24.0,00.0,33.7,26.6,10.9,0000.0,0010.20,0004.74,0003.34
2022-04-18 18:28:00,,0831.5,5.00,0.00,24.8,24.0,00.0,33.7,26.6,10.8,0000.0,0009.97,0004.66,0003.31
2022-04-18 18:29:00,,0831.5,5.01,0.00,24.8,24.1,00.0,33.7,26.7,10.8,0000.0,0009.81,0004.53,0003.28
2022-04-18 18:30:00,,0831.4,5.00,0.00,24.8,24.1,00.0,33.7,26.7,10.9,0000.0,0010.06,0004.52,0003.27
2022-04-18 18:31:00,,0831.4,4.99,0.00,24.8,24.1,00.0,33.7,26.7,10.8,0000.0,0010.70,0004.50,0003.29
2022-04-18 18:32:00,,0831.4,5.00,0.00,24.8,24.1,00.0,33.7,26.7,10.8,0000.0,0010.58,0004.58,0003.30
2022-04-18 18:33:00,,0831.4,5.00,0.00,24.8,24.1,00.0,33.7,26.7,10.8,0000.0,0010.73,0004.62,0003.33
2022-04-18 18:34:00,,0831.4,5.01,0.00,24.9,24.1,00.0,33.7,26.7,10.8,0000.0,0010.71,0004.63,0003.33
2022-04-18 18:35:00,,0831.4,5.01,0.00,24.9,24.2,00.0,33.7,26.7,10.8,0000.0,0010.77,0004.63,0003.35
2022-04-18 18:36:00,,0831.4,5.00,0.00,24.9,24.1,00.0,33.7,26.7,10.9,0000.0,0010.73,0004.62,0003.38
2022-04-18 18:37:00,,0831.4,5.00,0.00,24.8,24.1,00.0,33.7,26.6,10.9,0000.0,0010.79,0004.65,0003.40
2022-04-18 18:38:00,,0831.4,5.00,0.00,24.8,24.0,00.0,33.7,26.6,10.9,0000.0,0010.87,0004.69,0003.42
2022-04-18 18:39:00,,0831.3,5.00,0.00,24.8,24.0,00.0,33.7,26.7,10.9,0000.0,0010.86,0004.74,0003.45
2022-04-18 18:40:00,,0831.1,5.00,0.00,24.9,24.1,00.0,33.7,26.7,10.9,0000.0,0010.79,0004.79,0003.48
2022-04-18 18:41:00,,0831.1,5.00,0.00,24.9,24.1,00.0,33.8,26.7,10.9,0000.0,0010.36,0004.77,0003.49
2022-04-18 18:42:00,,0831.1,5.00,0.00,24.9,24.1,00.0,33.8,26.7,10.9,0000.0,0010.08,0004.81,0003.49
2022-04-18 18:43:00,,0831.1,5.00,0.00,24.9,24.1,00.0,33.8,26.7,10.8,0000.0,0010.88,0004.80,0003.49
2022-04-18 18:44:00,,0831.1,5.00,0.00,24.9,24.2,00.0,33.8,26.8,10.7,0000.0,0010.86,0004.81,0003.50
2022-04-18 18:45:00,,0831.1,5.00,0.00,24.9,24.2,00.0,33.8,26.8,10.7,0000.0,0011.04,0004.89,0003.52
2022-04-18 18:46:00,,0831.1,4.99,0.00,25.0,24.2,00.0,33.8,26.8,10.7,0000.0,0011.27,0004.93,0003.54
2022-04-18 18:47:00,,0831.2,5.00,0.00,25.0,24.3,00.0,33.8,26.9,10.7,0000.0,0011.30,0004.94,0003.55
2022-04-18 18:48:00,,0831.2,5.00,0.00,25.0,24.3,00.0,33.8,26.9,10.8,0000.0,0011.77,0004.99,0003.56
2022-04-18 18:49:00,,0831.1,4.99,0.00,25.0,24.3,00.0,33.8,26.9,10.8,0000.0,0012.39,0005.03,0003.58
2022-04-18 18:50:00,,0831.0,5.00,0.00,25.1,24.4,00.0,33.9,26.9,10.8,0000.0,0013.07,0005.00,0003.59
2022-04-18 18:51:00,,0831.0,5.00,0.00,25.1,24.4,00.0,33.9,26.9,10.9,0000.0,0013.23,0005.00,0003.60
2022-04-18 18:52:00,,0831.0,5.00,0.00,25.1,24.4,00.0,33.9,26.9,10.9,0000.0,0013.51,0005.09,0003.63
2022-04-18 18:53:00,,0831.0,5.00,0.00,25.1,24.4,00.0,33.9,26.9,10.9,0000.0,0013.42,0005.10,0003.65
2022-04-18 18:54:00,,0831.0,5.00,0.00,25.1,24.4,00.0,33.9,27.0,10.9,0000.0,0012.70,0005.12,0003.69
2022-04-18 18:55:00,,0831.0,5.01,0.00,25.1,24.5,00.0,33.9,27.0,10.9,0000.0,0012.86,0005.14,0003.71
2022-04-18 18:56:00,,0830.9,5.00,0.00,25.1,24.5,00.0,33.9,27.0,10.9,0000.0,0013.00,0005.09,0003.71
2022-04-18 18:57:00,,0830.9,5.01,0.00,25.1,24.5,00.0,34.0,27.0,10.9,0000.0,0013.06,0005.07,0003.71
2022-04-18 18:58:00,,0830.9,4.98,0.00,25.2,24.5,00.0,34.0,27.0,10.9,0000.0,0013.24,0005.09,0003.73
2022-04-18 18:59:00,,0830.9,5.01,0.00,25.2,24.6,00.0,34.0,27.1,10.9,0000.0,0013.09,0005.12,0003.76
